Starlink 34067

operational
NORAD ID: 64115 Int'l Des: 2025-110 Owner: SPXS Country: US Constellation: starlink
LEOCIRCULAR

关于 Starlink 34067

正在加载描述...

实时位置

正在加载3D地球...

即将过境

高度历史

Altitude vs Time

uPlot chart will show altitude changes over time

两行轨道根数

1 64115U 25110V 25260.97541132 .00052464 00000-0 13108-2 0 9999
2 64115 53.1579 112.2331 0001468 81.9241 278.1931 15.39660979 19394
Epoch: Sep 17, 2025 • Age: 27 hours

当前状态

高度 446.7 km
速度 7.65 km/s
星下点 9.35°N, 86.68°E
发射日期 May 23, 2025
运行时间 0.3 years
类型 internet

技术详情

分类 Payload
质量 575.00 kg
干质量 530.00 kg
总质量 575.00 kg
长度 0.30 m
直径 4.10 m
跨度 29.00 m
形状 Box + pan
制造商 SPXS
平台类型 Starlink V2MO
阶段状态 In Orbit
所有者/国家 SPXS/US

大型星座

Loading constellations...